Time,TemperatureF,DewpointF,PressureIn,WindDirection,WindDirectionDegrees,WindSpeedMPH,WindSpeedGustMPH,Humidity,HourlyPrecipIn,Conditions,Clouds,dailyrainin,SoftwareType,DateUTC
2013-08-16 00:00:00,66.6,38.1,17.73,North,0,0.0,0.0,35,0.00,,---,0.00,VWS V13.01,2013-08-16 06:00:00,
2013-08-16 00:05:00,66.6,38.1,17.73,North,0,0.0,0.0,35,0.00,,---,0.00,VWS V13.01,2013-08-16 06:05:00,
2013-08-16 00:10:00,66.6,38.1,17.73,North,0,0.0,0.0,35,0.00,,---,0.00,VWS V13.01,2013-08-16 06:10:00,
2013-08-16 00:15:00,66.6,38.1,17.73,North,0,0.0,0.0,35,0.00,,---,0.00,VWS V13.01,2013-08-16 06:15:00,
2013-08-16 00:20:00,66.6,37.3,17.73,North,0,0.0,0.0,34,0.00,,---,0.00,VWS V13.01,2013-08-16 06:20:00,
2013-08-16 00:25:00,66.6,37.3,17.73,North,0,0.0,0.0,34,0.00,,---,0.00,VWS V13.01,2013-08-16 06:25:00,
2013-08-16 00:30:00,66.6,37.3,17.73,North,0,0.0,0.0,34,0.00,,---,0.00,VWS V13.01,2013-08-16 06:30:00,
2013-08-16 00:35:00,66.4,37.2,17.73,North,0,0.0,0.0,34,0.00,,---,0.00,VWS V13.01,2013-08-16 06:35:00,
2013-08-16 00:40:00,66.2,37.0,17.73,North,0,0.0,0.0,34,0.00,,---,0.00,VWS V13.01,2013-08-16 06:40:00,
2013-08-16 00:45:00,66.2,37.0,17.73,North,0,0.0,0.0,34,0.00,,---,0.00,VWS V13.01,2013-08-16 06:45:00,
2013-08-16 00:50:00,66.2,37.0,17.73,North,0,0.0,0.0,34,0.00,,---,0.00,VWS V13.01,2013-08-16 06:50:00,
2013-08-16 00:55:00,66.0,37.6,17.73,North,0,0.0,0.0,35,0.00,,---,0.00,VWS V13.01,2013-08-16 06:55:00,
2013-08-16 01:00:00,65.8,36.7,17.73,North,0,0.0,0.0,34,0.00,,---,0.00,VWS V13.01,2013-08-16 07:00:00,
2013-08-16 01:06:00,65.5,36.4,17.73,North,0,0.0,0.0,34,0.00,,---,0.00,VWS V13.01,2013-08-16 07:06:00,
2013-08-16 01:11:00,65.3,36.2,17.73,North,0,0.0,0.0,34,0.00,,---,0.00,VWS V13.01,2013-08-16 07:11:00,
2013-08-16 01:16:00,65.1,36.1,17.73,North,0,0.0,0.0,34,0.00,,---,0.00,VWS V13.01,2013-08-16 07:16:00,
2013-08-16 01:21:00,65.1,36.1,17.73,North,0,0.0,0.0,34,0.00,,---,0.00,VWS V13.01,2013-08-16 07:21:00,
2013-08-16 01:26:00,64.9,36.7,17.73,North,0,0.0,0.0,35,0.00,,---,0.00,VWS V13.01,2013-08-16 07:26:00,
2013-08-16 01:31:00,64.8,35.8,17.73,North,0,0.0,0.0,34,0.00,,---,0.00,VWS V13.01,2013-08-16 07:31:00,
2013-08-16 01:36:00,64.8,35.8,17.73,North,0,0.0,0.0,34,0.00,,---,0.00,VWS V13.01,2013-08-16 07:36:00,
2013-08-16 01:41:00,64.4,35.5,17.73,North,0,0.0,0.0,34,0.00,,---,0.00,VWS V13.01,2013-08-16 07:41:00,
2013-08-16 01:46:00,64.4,35.5,17.73,North,0,0.0,0.0,34,0.00,,---,0.00,VWS V13.01,2013-08-16 07:46:00,
2013-08-16 01:51:00,64.4,36.2,17.73,North,0,0.0,0.0,35,0.00,,---,0.00,VWS V13.01,2013-08-16 07:51:00,
2013-08-16 01:56:00,64.2,36.0,17.73,North,0,0.0,0.0,35,0.00,,---,0.00,VWS V13.01,2013-08-16 07:56:00,
2013-08-16 02:01:00,64.4,36.2,17.73,North,0,0.0,0.0,35,0.00,,---,0.00,VWS V13.01,2013-08-16 08:01:00,
2013-08-16 02:06:00,64.4,36.2,17.73,North,0,0.0,0.0,35,0.00,,---,0.00,VWS V13.01,2013-08-16 08:06:00,
2013-08-16 02:11:00,64.9,36.7,17.73,North,0,0.0,0.0,35,0.00,,---,0.00,VWS V13.01,2013-08-16 08:11:00,
2013-08-16 02:16:00,65.1,36.8,17.73,North,0,0.0,0.0,35,0.00,,---,0.00,VWS V13.01,2013-08-16 08:16:00,
2013-08-16 02:21:00,65.1,36.1,17.73,North,0,0.0,0.0,34,0.00,,---,0.00,VWS V13.01,2013-08-16 08:21:00,
2013-08-16 02:26:00,64.9,35.9,17.73,North,0,0.0,0.0,34,0.00,,---,0.00,VWS V13.01,2013-08-16 08:26:00,
2013-08-16 02:31:00,64.9,35.9,17.73,North,0,0.0,0.0,34,0.00,,---,0.00,VWS V13.01,2013-08-16 08:31:00,
2013-08-16 02:36:00,65.1,36.1,17.73,North,0,0.0,0.0,34,0.00,,---,0.00,VWS V13.01,2013-08-16 08:36:00,
2013-08-16 02:41:00,65.1,36.1,17.73,North,0,0.0,0.0,34,0.00,,---,0.00,VWS V13.01,2013-08-16 08:41:00,
2013-08-16 02:47:00,64.9,35.9,17.73,North,0,0.0,0.0,34,0.00,,---,0.00,VWS V13.01,2013-08-16 08:47:00,
2013-08-16 02:52:00,64.8,35.8,17.73,North,0,0.0,0.0,34,0.00,,---,0.00,VWS V13.01,2013-08-16 08:52:00,
2013-08-16 02:57:00,64.6,35.6,17.73,North,0,0.0,0.0,34,0.00,,---,0.00,VWS V13.01,2013-08-16 08:57:00,
2013-08-16 03:02:00,64.4,35.5,17.73,North,0,0.0,0.0,34,0.00,,---,0.00,VWS V13.01,2013-08-16 09:02:00,
2013-08-16 03:07:00,64.4,35.5,17.73,North,0,0.0,0.0,34,0.00,,---,0.00,VWS V13.01,2013-08-16 09:07:00,
2013-08-16 03:12:00,64.4,35.5,17.73,North,0,0.0,0.0,34,0.00,,---,0.00,VWS V13.01,2013-08-16 09:12:00,
2013-08-16 03:17:00,64.8,35.8,17.73,North,0,0.0,0.0,34,0.00,,---,0.00,VWS V13.01,2013-08-16 09:17:00,
2013-08-16 03:22:00,65.3,36.2,17.73,North,0,0.0,0.0,34,0.00,,---,0.00,VWS V13.01,2013-08-16 09:22:00,
2013-08-16 03:27:00,65.8,36.7,17.73,North,0,0.0,0.0,34,0.00,,---,0.00,VWS V13.01,2013-08-16 09:27:00,
2013-08-16 03:32:00,66.2,36.3,17.73,North,0,0.0,0.0,33,0.00,,---,0.00,VWS V13.01,2013-08-16 09:32:00,
2013-08-16 03:37:00,66.4,36.4,17.73,North,0,0.0,0.0,33,0.00,,---,0.00,VWS V13.01,2013-08-16 09:37:00,
2013-08-16 03:42:00,66.4,36.4,17.73,North,0,0.0,0.0,33,0.00,,---,0.00,VWS V13.01,2013-08-16 09:42:00,
2013-08-16 03:47:00,66.6,36.6,17.73,North,0,0.0,0.0,33,0.00,,---,0.00,VWS V13.01,2013-08-16 09:47:00,
2013-08-16 03:52:00,66.7,36.0,17.73,North,0,0.0,0.0,32,0.00,,---,0.00,VWS V13.01,2013-08-16 09:52:00,
2013-08-16 03:57:00,66.9,36.1,17.73,North,0,0.0,0.0,32,0.00,,---,0.00,VWS V13.01,2013-08-16 09:57:00,
2013-08-16 04:02:00,67.1,35.5,17.73,North,0,0.0,0.0,31,0.00,,---,0.00,VWS V13.01,2013-08-16 10:02:00,
2013-08-16 04:08:00,67.3,34.8,17.73,North,0,0.0,0.0,30,0.00,,---,0.00,VWS V13.01,2013-08-16 10:08:00,
2013-08-16 04:13:00,67.3,34.0,17.73,North,0,0.0,0.0,29,0.00,,---,0.00,VWS V13.01,2013-08-16 10:13:00,
2013-08-16 04:18:00,67.5,34.1,17.73,North,0,0.0,0.0,29,0.00,,---,0.00,VWS V13.01,2013-08-16 10:18:00,
2013-08-16 04:23:00,67.5,33.2,17.73,North,0,0.0,0.0,28,0.00,,---,0.00,VWS V13.01,2013-08-16 10:23:00,
2013-08-16 04:28:00,67.5,32.3,17.73,North,0,0.0,0.0,27,0.00,,---,0.00,VWS V13.01,2013-08-16 10:28:00,
2013-08-16 04:33:00,67.6,32.5,17.73,North,0,0.0,0.0,27,0.00,,---,0.00,VWS V13.01,2013-08-16 10:33:00,
2013-08-16 04:38:00,67.6,32.5,17.73,North,0,0.0,0.0,27,0.00,,---,0.00,VWS V13.01,2013-08-16 10:38:00,
2013-08-16 04:43:00,67.5,32.3,17.73,North,0,0.0,0.0,27,0.00,,---,0.00,VWS V13.01,2013-08-16 10:43:00,
2013-08-16 04:48:00,67.5,31.4,17.73,North,0,0.0,0.0,26,0.00,,---,0.00,VWS V13.01,2013-08-16 10:48:00,
2013-08-16 04:53:00,67.5,31.4,17.73,North,0,0.0,0.0,26,0.00,,---,0.00,VWS V13.01,2013-08-16 10:53:00,
2013-08-16 04:58:00,67.3,31.2,17.73,North,0,0.0,0.0,26,0.00,,---,0.00,VWS V13.01,2013-08-16 10:58:00,
2013-08-16 05:03:00,67.1,31.1,17.73,North,0,0.0,0.0,26,0.00,,---,0.00,VWS V13.01,2013-08-16 11:03:00,
2013-08-16 05:08:00,66.9,31.0,17.73,North,0,0.0,0.0,26,0.00,,---,0.00,VWS V13.01,2013-08-16 11:08:00,
2013-08-16 05:13:00,66.9,31.0,17.73,North,0,0.0,0.0,26,0.00,,---,0.00,VWS V13.01,2013-08-16 11:13:00,
2013-08-16 05:18:00,66.7,30.8,17.73,North,0,0.0,0.0,26,0.00,,---,0.00,VWS V13.01,2013-08-16 11:18:00,
2013-08-16 05:23:00,66.6,30.6,17.73,North,0,0.0,0.0,26,0.00,,---,0.00,VWS V13.01,2013-08-16 11:23:00,
2013-08-16 05:29:00,66.7,30.8,17.73,North,0,0.0,0.0,26,0.00,,---,0.00,VWS V13.01,2013-08-16 11:29:00,
2013-08-16 05:34:00,66.7,30.8,17.73,North,0,0.0,0.0,26,0.00,,---,0.00,VWS V13.01,2013-08-16 11:34:00,
2013-08-16 05:39:00,66.9,31.0,17.73,North,0,0.0,0.0,26,0.00,,---,0.00,VWS V13.01,2013-08-16 11:39:00,
2013-08-16 05:44:00,66.9,31.0,17.73,North,0,0.0,0.0,26,0.00,,---,0.00,VWS V13.01,2013-08-16 11:44:00,
2013-08-16 05:49:00,66.9,30.0,17.73,North,0,0.0,0.0,25,0.00,,---,0.00,VWS V13.01,2013-08-16 11:49:00,
2013-08-16 05:54:00,67.1,30.1,17.73,North,0,0.0,0.0,25,0.00,,---,0.00,VWS V13.01,2013-08-16 11:54:00,
2013-08-16 05:59:00,67.1,30.1,17.73,North,0,0.0,0.0,25,0.00,,---,0.00,VWS V13.01,2013-08-16 11:59:00,
2013-08-16 06:04:00,67.1,30.1,17.73,North,0,0.0,0.0,25,0.00,,---,0.00,VWS V13.01,2013-08-16 12:04:00,
2013-08-16 06:09:00,67.1,30.1,17.73,North,0,0.0,0.0,25,0.00,,---,0.00,VWS V13.01,2013-08-16 12:09:00,
2013-08-16 06:14:00,67.3,30.3,17.73,North,0,0.0,0.0,25,0.00,,---,0.00,VWS V13.01,2013-08-16 12:14:00,
2013-08-16 06:19:00,67.5,30.4,17.73,North,0,0.0,0.0,25,0.00,,---,0.00,VWS V13.01,2013-08-16 12:19:00,
2013-08-16 06:24:00,67.5,30.4,17.73,North,0,0.0,0.0,25,0.00,,---,0.00,VWS V13.01,2013-08-16 12:24:00,
2013-08-16 06:29:00,67.5,29.4,17.73,North,0,0.0,0.0,24,0.00,,---,0.00,VWS V13.01,2013-08-16 12:29:00,
2013-08-16 06:34:00,67.5,29.4,17.73,North,0,0.0,0.0,24,0.00,,---,0.00,VWS V13.01,2013-08-16 12:34:00,
2013-08-16 06:39:00,67.6,29.6,17.73,North,0,0.0,0.0,24,0.00,,---,0.00,VWS V13.01,2013-08-16 12:39:00,
2013-08-16 06:44:00,67.8,29.7,17.73,North,0,0.0,0.0,24,0.00,,---,0.00,VWS V13.01,2013-08-16 12:44:00,
2013-08-16 06:49:00,67.8,29.7,17.73,North,0,0.0,0.0,24,0.00,,---,0.00,VWS V13.01,2013-08-16 12:49:00,
2013-08-16 06:54:00,68.0,29.9,17.73,North,0,0.0,0.0,24,0.00,,---,0.00,VWS V13.01,2013-08-16 12:54:00,
2013-08-16 06:59:00,68.4,30.2,17.73,North,0,0.0,0.0,24,0.00,,---,0.00,VWS V13.01,2013-08-16 12:59:00,
2013-08-16 07:04:00,68.7,30.5,17.73,North,0,0.0,0.0,24,0.00,,---,0.00,VWS V13.01,2013-08-16 13:04:00,
2013-08-16 07:09:00,68.7,30.5,17.73,North,0,0.0,0.0,24,0.00,,---,0.00,VWS V13.01,2013-08-16 13:09:00,
2013-08-16 07:14:00,68.7,30.5,17.73,North,0,0.0,0.0,24,0.00,,---,0.00,VWS V13.01,2013-08-16 13:14:00,
2013-08-16 07:19:00,69.1,30.8,17.73,North,0,0.0,0.0,24,0.00,,---,0.00,VWS V13.01,2013-08-16 13:19:00,
2013-08-16 07:24:00,69.6,31.3,17.73,North,0,0.0,0.0,24,0.00,,---,0.00,VWS V13.01,2013-08-16 13:24:00,
2013-08-16 07:29:00,70.2,31.7,17.73,North,0,0.0,0.0,24,0.00,,---,0.00,VWS V13.01,2013-08-16 13:29:00,
2013-08-16 07:34:00,70.9,32.3,17.73,North,0,0.0,0.0,24,0.00,,---,0.00,VWS V13.01,2013-08-16 13:34:00,
2013-08-16 07:39:00,71.2,32.6,17.73,North,0,0.0,0.0,24,0.00,,---,0.00,VWS V13.01,2013-08-16 13:39:00,
2013-08-16 07:44:00,71.4,31.7,17.73,North,0,0.0,0.0,23,0.00,,---,0.00,VWS V13.01,2013-08-16 13:44:00,
2013-08-16 07:50:00,71.6,31.9,17.73,North,0,0.0,0.0,23,0.00,,---,0.00,VWS V13.01,2013-08-16 13:50:00,
2013-08-16 07:55:00,71.6,31.9,17.73,North,0,0.0,0.0,23,0.00,,---,0.00,VWS V13.01,2013-08-16 13:55:00,
2013-08-16 08:00:00,71.8,30.9,17.73,North,0,0.0,0.0,22,0.00,,---,0.00,VWS V13.01,2013-08-16 14:00:00,
2013-08-16 08:05:00,72.0,32.2,17.73,North,0,0.0,0.0,23,0.00,,---,0.00,VWS V13.01,2013-08-16 14:05:00,
2013-08-16 08:10:00,72.0,32.2,17.73,North,0,0.0,0.0,23,0.00,,---,0.00,VWS V13.01,2013-08-16 14:10:00,
2013-08-16 08:15:00,72.1,31.2,17.73,North,0,0.0,0.0,22,0.00,,---,0.00,VWS V13.01,2013-08-16 14:15:00,
2013-08-16 08:20:00,72.5,31.5,17.73,North,0,0.0,0.0,22,0.00,,---,0.00,VWS V13.01,2013-08-16 14:20:00,
2013-08-16 08:25:00,72.9,31.8,17.73,North,0,0.0,0.0,22,0.00,,---,0.00,VWS V13.01,2013-08-16 14:25:00,
2013-08-16 08:30:00,73.0,32.0,17.73,North,0,0.0,0.0,22,0.00,,---,0.00,VWS V13.01,2013-08-16 14:30:00,
2013-08-16 08:35:00,73.0,32.0,17.73,North,0,0.0,0.0,22,0.00,,---,0.00,VWS V13.01,2013-08-16 14:35:00,
2013-08-16 08:40:00,72.9,31.8,17.73,North,0,0.0,0.0,22,0.00,,---,0.00,VWS V13.01,2013-08-16 14:40:00,
2013-08-16 08:46:00,73.0,32.0,17.73,North,0,0.0,0.0,22,0.00,,---,0.00,VWS V13.01,2013-08-16 14:46:00,
2013-08-16 08:51:00,73.6,32.4,17.73,North,0,0.0,0.0,22,0.00,,---,0.00,VWS V13.01,2013-08-16 14:51:00,
2013-08-16 08:56:00,73.6,31.3,17.73,North,0,0.0,0.0,21,0.00,,---,0.00,VWS V13.01,2013-08-16 14:56:00,
2013-08-16 09:01:00,73.4,31.1,17.73,North,0,0.0,0.0,21,0.00,,---,0.00,VWS V13.01,2013-08-16 15:01:00,
2013-08-16 09:06:00,73.2,32.1,17.73,North,0,0.0,0.0,22,0.00,,---,0.00,VWS V13.01,2013-08-16 15:06:00,
2013-08-16 09:11:00,73.4,31.1,17.73,North,0,0.0,0.0,21,0.00,,---,0.00,VWS V13.01,2013-08-16 15:11:00,
2013-08-16 09:16:00,73.8,31.4,17.73,North,0,0.0,0.0,21,0.00,,---,0.00,VWS V13.01,2013-08-16 15:16:00,
2013-08-16 09:21:00,74.5,32.0,17.73,North,0,0.0,0.0,21,0.00,,---,0.00,VWS V13.01,2013-08-16 15:21:00,
2013-08-16 09:26:00,75.7,33.1,17.73,North,0,0.0,0.0,21,0.00,,---,0.00,VWS V13.01,2013-08-16 15:26:00,
2013-08-16 09:31:00,76.3,33.5,17.73,North,0,0.0,0.0,21,0.00,,---,0.00,VWS V13.01,2013-08-16 15:31:00,
2013-08-16 09:36:00,76.8,34.0,17.73,North,0,0.0,0.0,21,0.00,,---,0.00,VWS V13.01,2013-08-16 15:36:00,
2013-08-16 09:41:00,77.5,33.3,17.73,North,0,0.0,0.0,20,0.00,,---,0.00,VWS V13.01,2013-08-16 15:41:00,
2013-08-16 09:46:00,77.9,33.6,17.73,North,0,0.0,0.0,20,0.00,,---,0.00,VWS V13.01,2013-08-16 15:46:00,
2013-08-16 09:51:00,78.3,33.9,17.73,North,0,0.0,0.0,20,0.00,,---,0.00,VWS V13.01,2013-08-16 15:51:00,
2013-08-16 09:56:00,79.0,34.5,17.73,North,0,0.0,0.0,20,0.00,,---,0.00,VWS V13.01,2013-08-16 15:56:00,
2013-08-16 10:01:00,79.2,34.7,17.73,North,0,0.0,0.0,20,0.00,,---,0.00,VWS V13.01,2013-08-16 16:01:00,
2013-08-16 10:06:00,79.0,34.5,17.73,North,0,0.0,0.0,20,0.00,,---,0.00,VWS V13.01,2013-08-16 16:06:00,
2013-08-16 10:11:00,79.5,35.0,17.73,North,0,0.0,0.0,20,0.00,,---,0.00,VWS V13.01,2013-08-16 16:11:00,
2013-08-16 10:16:00,79.7,35.1,17.73,North,0,0.0,0.0,20,0.00,,---,0.00,VWS V13.01,2013-08-16 16:16:00,
2013-08-16 10:21:00,80.1,31.4,17.73,North,0,0.0,0.0,17,0.00,,---,0.00,VWS V13.01,2013-08-16 16:21:00,
2013-08-16 10:26:00,80.4,31.7,17.73,North,0,0.0,0.0,17,0.00,,---,0.00,VWS V13.01,2013-08-16 16:26:00,
2013-08-16 10:31:00,80.1,31.4,17.73,North,0,0.0,0.0,17,0.00,,---,0.00,VWS V13.01,2013-08-16 16:31:00,
2013-08-16 10:36:00,80.1,31.4,17.73,North,0,0.0,0.0,17,0.00,,---,0.00,VWS V13.01,2013-08-16 16:36:00,
2013-08-16 10:41:00,80.4,31.7,17.73,North,0,0.0,0.0,17,0.00,,---,0.00,VWS V13.01,2013-08-16 16:41:00,
2013-08-16 10:46:00,80.8,32.0,17.73,North,0,0.0,0.0,17,0.00,,---,0.00,VWS V13.01,2013-08-16 16:46:00,
2013-08-16 10:51:00,81.0,32.1,17.73,North,0,0.0,0.0,17,0.00,,---,0.00,VWS V13.01,2013-08-16 16:51:00,
2013-08-16 10:56:00,81.0,32.1,17.73,North,0,0.0,0.0,17,0.00,,---,0.00,VWS V13.01,2013-08-16 16:56:00,
2013-08-16 11:01:00,81.3,32.4,17.73,North,0,0.0,0.0,17,0.00,,---,0.00,VWS V13.01,2013-08-16 17:01:00,
2013-08-16 11:06:00,81.3,32.4,17.73,North,0,0.0,0.0,17,0.00,,---,0.00,VWS V13.01,2013-08-16 17:06:00,
2013-08-16 11:11:00,80.4,31.7,17.73,North,0,0.0,0.0,17,0.00,,---,0.00,VWS V13.01,2013-08-16 17:11:00,
2013-08-16 11:16:00,79.2,30.6,17.73,North,0,0.0,0.0,17,0.00,,---,0.00,VWS V13.01,2013-08-16 17:16:00,
2013-08-16 11:22:00,78.3,31.3,17.73,North,0,0.0,0.0,18,0.00,,---,0.00,VWS V13.01,2013-08-16 17:22:00,
2013-08-16 11:27:00,77.9,31.0,17.73,North,0,0.0,0.0,18,0.00,,---,0.00,VWS V13.01,2013-08-16 17:27:00,
2013-08-16 11:32:00,77.5,30.7,17.73,North,0,0.0,0.0,18,0.00,,---,0.00,VWS V13.01,2013-08-16 17:32:00,
2013-08-16 11:37:00,77.7,30.9,17.73,North,0,0.0,0.0,18,0.00,,---,0.00,VWS V13.01,2013-08-16 17:37:00,
2013-08-16 11:42:00,77.9,31.0,17.73,North,0,0.0,0.0,18,0.00,,---,0.00,VWS V13.01,2013-08-16 17:42:00,
2013-08-16 11:47:00,78.1,31.2,17.73,North,0,0.0,0.0,18,0.00,,---,0.00,VWS V13.01,2013-08-16 17:47:00,
2013-08-16 11:52:00,77.7,30.9,17.73,North,0,0.0,0.0,18,0.00,,---,0.00,VWS V13.01,2013-08-16 17:52:00,
2013-08-16 11:57:00,77.2,30.4,17.73,North,0,0.0,0.0,18,0.00,,---,0.00,VWS V13.01,2013-08-16 17:57:00,
2013-08-16 12:02:00,77.2,30.4,17.73,North,0,0.0,0.0,18,0.00,,---,0.00,VWS V13.01,2013-08-16 18:02:00,
2013-08-16 12:08:00,77.2,30.4,17.73,North,0,0.0,0.0,18,0.00,,---,0.00,VWS V13.01,2013-08-16 18:08:00,
2013-08-16 12:13:00,77.0,30.3,17.73,North,0,0.0,0.0,18,0.00,,---,0.00,VWS V13.01,2013-08-16 18:13:00,
2013-08-16 12:18:00,76.8,30.1,17.73,North,0,0.0,0.0,18,0.00,,---,0.00,VWS V13.01,2013-08-16 18:18:00,
2013-08-16 12:23:00,76.6,30.0,17.73,North,0,0.0,0.0,18,0.00,,---,0.00,VWS V13.01,2013-08-16 18:23:00,
2013-08-16 12:28:00,76.5,29.9,17.73,North,0,0.0,0.0,18,0.00,,---,0.00,VWS V13.01,2013-08-16 18:28:00,
2013-08-16 12:33:00,76.5,29.9,17.73,North,0,0.0,0.0,18,0.00,,---,0.00,VWS V13.01,2013-08-16 18:33:00,
2013-08-16 12:38:00,76.6,30.0,17.73,North,0,0.0,0.0,18,0.00,,---,0.00,VWS V13.01,2013-08-16 18:38:00,
2013-08-16 12:43:00,76.8,30.1,17.73,North,0,0.0,0.0,18,0.00,,---,0.00,VWS V13.01,2013-08-16 18:43:00,
2013-08-16 12:48:00,76.8,30.1,17.73,North,0,0.0,0.0,18,0.00,,---,0.00,VWS V13.01,2013-08-16 18:48:00,
2013-08-16 12:54:00,77.0,30.3,17.73,North,0,0.0,0.0,18,0.00,,---,0.00,VWS V13.01,2013-08-16 18:54:00,
2013-08-16 12:59:00,76.8,30.1,17.73,North,0,0.0,0.0,18,0.00,,---,0.00,VWS V13.01,2013-08-16 18:59:00,
2013-08-16 13:04:00,77.0,30.3,17.73,North,0,0.0,0.0,18,0.00,,---,0.00,VWS V13.01,2013-08-16 19:04:00,
2013-08-16 13:09:00,77.2,30.4,17.73,North,0,0.0,0.0,18,0.00,,---,0.00,VWS V13.01,2013-08-16 19:09:00,
2013-08-16 13:14:00,77.2,30.4,17.73,North,0,0.0,0.0,18,0.00,,---,0.00,VWS V13.01,2013-08-16 19:14:00,
2013-08-16 13:19:00,77.4,30.6,17.73,North,0,0.0,0.0,18,0.00,,---,0.00,VWS V13.01,2013-08-16 19:19:00,
2013-08-16 13:24:00,76.5,29.9,17.73,North,0,0.0,0.0,18,0.00,,---,0.00,VWS V13.01,2013-08-16 19:24:00,
2013-08-16 13:29:00,75.6,31.7,17.73,North,0,0.0,0.0,20,0.00,,---,0.00,VWS V13.01,2013-08-16 19:29:00,
2013-08-16 13:34:00,75.2,31.4,17.73,North,0,0.0,0.0,20,0.00,,---,0.00,VWS V13.01,2013-08-16 19:34:00,
2013-08-16 13:39:00,74.8,32.3,17.73,North,0,0.0,0.0,21,0.00,,---,0.00,VWS V13.01,2013-08-16 19:39:00,
2013-08-16 13:44:00,74.8,32.3,17.73,North,0,0.0,0.0,21,0.00,,---,0.00,VWS V13.01,2013-08-16 19:44:00,
2013-08-16 13:49:00,74.7,32.2,17.73,North,0,0.0,0.0,21,0.00,,---,0.00,VWS V13.01,2013-08-16 19:49:00,
2013-08-16 13:54:00,73.8,31.4,17.73,North,0,0.0,0.0,21,0.00,,---,0.00,VWS V13.01,2013-08-16 19:54:00,
2013-08-16 13:59:00,73.2,32.1,17.73,North,0,0.0,0.0,22,0.00,,---,0.00,VWS V13.01,2013-08-16 19:59:00,
2013-08-16 14:04:00,72.9,31.8,17.73,North,0,0.0,0.0,22,0.00,,---,0.00,VWS V13.01,2013-08-16 20:04:00,
2013-08-16 14:10:00,72.7,31.7,17.73,North,0,0.0,0.0,22,0.00,,---,0.00,VWS V13.01,2013-08-16 20:10:00,
2013-08-16 14:15:00,72.9,31.8,17.73,North,0,0.0,0.0,22,0.00,,---,0.00,VWS V13.01,2013-08-16 20:15:00,
2013-08-16 14:20:00,73.0,32.0,17.73,North,0,0.0,0.0,22,0.00,,---,0.00,VWS V13.01,2013-08-16 20:20:00,
2013-08-16 14:25:00,72.9,31.8,17.73,North,0,0.0,0.0,22,0.00,,---,0.00,VWS V13.01,2013-08-16 20:25:00,
2013-08-16 14:30:00,72.9,31.8,17.73,North,0,0.0,0.0,22,0.00,,---,0.00,VWS V13.01,2013-08-16 20:30:00,
2013-08-16 14:35:00,72.7,31.7,17.73,North,0,0.0,0.0,22,0.00,,---,0.00,VWS V13.01,2013-08-16 20:35:00,
2013-08-16 14:40:00,72.1,31.2,17.73,North,0,0.0,0.0,22,0.00,,---,0.00,VWS V13.01,2013-08-16 20:40:00,
2013-08-16 14:45:00,72.0,31.1,17.73,North,0,0.0,0.0,22,0.00,,---,0.00,VWS V13.01,2013-08-16 20:45:00,
2013-08-16 14:50:00,72.3,31.4,17.73,North,0,0.0,0.0,22,0.00,,---,0.00,VWS V13.01,2013-08-16 20:50:00,
2013-08-16 14:55:00,72.7,31.7,17.73,North,0,0.0,0.0,22,0.00,,---,0.00,VWS V13.01,2013-08-16 20:55:00,
2013-08-16 15:00:00,73.0,32.0,17.73,North,0,0.0,0.0,22,0.00,,---,0.00,VWS V13.01,2013-08-16 21:00:00,
2013-08-16 15:05:00,73.2,32.1,17.73,North,0,0.0,0.0,22,0.00,,---,0.00,VWS V13.01,2013-08-16 21:05:00,
2013-08-16 15:10:00,73.4,31.1,17.73,North,0,0.0,0.0,21,0.00,,---,0.00,VWS V13.01,2013-08-16 21:10:00,
2013-08-16 15:15:00,73.6,31.3,17.73,North,0,0.0,0.0,21,0.00,,---,0.00,VWS V13.01,2013-08-16 21:15:00,
2013-08-16 15:20:00,73.9,31.6,17.73,North,0,0.0,0.0,21,0.00,,---,0.00,VWS V13.01,2013-08-16 21:20:00,
2013-08-16 15:25:00,74.7,32.2,17.73,North,0,0.0,0.0,21,0.00,,---,0.00,VWS V13.01,2013-08-16 21:25:00,
2013-08-16 15:30:00,75.2,31.4,17.73,North,0,0.0,0.0,20,0.00,,---,0.00,VWS V13.01,2013-08-16 21:30:00,
2013-08-16 15:35:00,74.7,32.2,17.73,North,0,0.0,0.0,21,0.00,,---,0.00,VWS V13.01,2013-08-16 21:35:00,
2013-08-16 15:40:00,73.9,31.6,17.73,North,0,0.0,0.0,21,0.00,,---,0.00,VWS V13.01,2013-08-16 21:40:00,
2013-08-16 15:45:00,73.2,31.0,17.73,North,0,0.0,0.0,21,0.00,,---,0.00,VWS V13.01,2013-08-16 21:45:00,
2013-08-16 15:50:00,72.5,30.4,17.73,North,0,0.0,0.0,21,0.00,,---,0.00,VWS V13.01,2013-08-16 21:50:00,
2013-08-16 15:55:00,71.2,30.5,17.73,North,0,0.0,0.0,22,0.00,,---,0.00,VWS V13.01,2013-08-16 21:55:00,
2013-08-16 16:00:00,70.0,29.4,17.73,North,0,0.0,0.0,22,0.00,,---,0.00,VWS V13.01,2013-08-16 22:00:00,
2013-08-16 16:05:00,68.9,28.5,17.73,North,0,0.0,0.0,22,0.00,,---,0.00,VWS V13.01,2013-08-16 22:05:00,
2013-08-16 16:10:00,68.2,27.9,17.73,North,0,0.0,0.0,22,0.00,,---,0.00,VWS V13.01,2013-08-16 22:10:00,
2013-08-16 16:15:00,67.5,28.4,17.73,North,0,0.0,0.0,23,0.00,,---,0.00,VWS V13.01,2013-08-16 22:15:00,
2013-08-16 16:20:00,66.9,27.9,17.73,North,0,0.0,0.0,23,0.00,,---,0.00,VWS V13.01,2013-08-16 22:20:00,
2013-08-16 16:25:00,66.4,27.5,17.73,North,0,0.0,0.0,23,0.00,,---,0.00,VWS V13.01,2013-08-16 22:25:00,
2013-08-16 16:30:00,66.2,27.3,17.73,North,0,0.0,0.0,23,0.00,,---,0.00,VWS V13.01,2013-08-16 22:30:00,
2013-08-16 16:35:00,66.0,28.2,17.73,North,0,0.0,0.0,24,0.00,,---,0.00,VWS V13.01,2013-08-16 22:35:00,
2013-08-16 16:40:00,65.8,28.1,17.73,North,0,0.0,0.0,24,0.00,,---,0.00,VWS V13.01,2013-08-16 22:40:00,
2013-08-16 16:45:00,65.8,29.1,17.73,North,0,0.0,0.0,25,0.00,,---,0.00,VWS V13.01,2013-08-16 22:45:00,
2013-08-16 16:50:00,65.8,29.1,17.73,North,0,0.0,0.0,25,0.00,,---,0.00,VWS V13.01,2013-08-16 22:50:00,
2013-08-16 16:55:00,65.8,29.1,17.73,North,0,0.0,0.0,25,0.00,,---,0.00,VWS V13.01,2013-08-16 22:55:00,
2013-08-16 17:00:00,65.7,28.9,17.73,North,0,0.0,0.0,25,0.00,,---,0.00,VWS V13.01,2013-08-16 23:00:00,
2013-08-16 17:05:00,65.7,28.9,17.73,North,0,0.0,0.0,25,0.00,,---,0.00,VWS V13.01,2013-08-16 23:05:00,
2013-08-16 17:10:00,65.7,29.9,17.73,North,0,0.0,0.0,26,0.00,,---,0.00,VWS V13.01,2013-08-16 23:10:00,
2013-08-16 17:15:00,65.5,29.7,17.73,North,0,0.0,0.0,26,0.00,,---,0.00,VWS V13.01,2013-08-16 23:15:00,
2013-08-16 17:20:00,65.3,29.6,17.73,North,0,0.0,0.0,26,0.00,,---,0.00,VWS V13.01,2013-08-16 23:20:00,
2013-08-16 17:25:00,65.3,29.6,17.73,North,0,0.0,0.0,26,0.00,,---,0.00,VWS V13.01,2013-08-16 23:25:00,
2013-08-16 17:30:00,65.3,29.6,17.73,North,0,0.0,0.0,26,0.00,,---,0.00,VWS V13.01,2013-08-16 23:30:00,
2013-08-16 17:35:00,65.3,30.5,17.73,North,0,0.0,0.0,27,0.00,,---,0.00,VWS V13.01,2013-08-16 23:35:00,
2013-08-16 17:40:00,65.3,30.5,17.73,North,0,0.0,0.0,27,0.00,,---,0.00,VWS V13.01,2013-08-16 23:40:00,
2013-08-16 17:45:00,65.1,30.3,17.73,North,0,0.0,0.0,27,0.00,,---,0.00,VWS V13.01,2013-08-16 23:45:00,
2013-08-16 17:50:00,64.9,30.2,17.73,North,0,0.0,0.0,27,0.00,,---,0.00,VWS V13.01,2013-08-16 23:50:00,
2013-08-16 17:55:00,64.9,30.2,17.73,North,0,0.0,0.0,27,0.00,,---,0.00,VWS V13.01,2013-08-16 23:55:00,
2013-08-16 18:00:00,64.9,30.2,17.73,North,0,0.0,0.0,27,0.00,,---,0.00,VWS V13.01,2013-08-17 00:00:00,
2013-08-16 18:05:00,64.9,30.2,17.73,North,0,0.0,0.0,27,0.00,,---,0.00,VWS V13.01,2013-08-17 00:05:00,
2013-08-16 18:10:00,64.8,30.9,17.73,North,0,0.0,0.0,28,0.00,,---,0.00,VWS V13.01,2013-08-17 00:10:00,
2013-08-16 18:15:00,64.8,30.9,17.73,North,0,0.0,0.0,28,0.00,,---,0.00,VWS V13.01,2013-08-17 00:15:00,
2013-08-16 18:20:00,64.8,30.9,17.73,North,0,0.0,0.0,28,0.00,,---,0.00,VWS V13.01,2013-08-17 00:20:00,
2013-08-16 18:25:00,64.8,30.9,17.73,North,0,0.0,0.0,28,0.00,,---,0.00,VWS V13.01,2013-08-17 00:25:00,
2013-08-16 18:30:00,64.6,30.8,17.73,North,0,0.0,0.0,28,0.00,,---,0.00,VWS V13.01,2013-08-17 00:30:00,
2013-08-16 18:35:00,64.4,31.5,17.73,North,0,0.0,0.0,29,0.00,,---,0.00,VWS V13.01,2013-08-17 00:35:00,
2013-08-16 18:40:00,64.4,31.5,17.73,North,0,0.0,0.0,29,0.00,,---,0.00,VWS V13.01,2013-08-17 00:40:00,
2013-08-16 18:45:00,64.2,31.3,17.73,North,0,0.0,0.0,29,0.00,,---,0.00,VWS V13.01,2013-08-17 00:45:00,
2013-08-16 18:50:00,64.2,32.2,17.73,North,0,0.0,0.0,30,0.00,,---,0.00,VWS V13.01,2013-08-17 00:50:00,
2013-08-16 18:56:00,64.2,32.2,17.73,North,0,0.0,0.0,30,0.00,,---,0.00,VWS V13.01,2013-08-17 00:56:00,
2013-08-16 19:01:00,64.6,32.5,17.73,North,0,0.0,0.0,30,0.00,,---,0.00,VWS V13.01,2013-08-17 01:01:00,
2013-08-16 19:06:00,64.6,32.5,17.73,North,0,0.0,0.0,30,0.00,,---,0.00,VWS V13.01,2013-08-17 01:06:00,
2013-08-16 19:11:00,64.6,32.5,17.73,North,0,0.0,0.0,30,0.00,,---,0.00,VWS V13.01,2013-08-17 01:11:00,
2013-08-16 19:16:00,64.4,33.1,17.73,North,0,0.0,0.0,31,0.00,,---,0.00,VWS V13.01,2013-08-17 01:16:00,
2013-08-16 19:21:00,64.4,33.1,17.73,North,0,0.0,0.0,31,0.00,,---,0.00,VWS V13.01,2013-08-17 01:21:00,
2013-08-16 19:26:00,64.4,33.1,17.73,North,0,0.0,0.0,31,0.00,,---,0.00,VWS V13.01,2013-08-17 01:26:00,
2013-08-16 19:31:00,64.2,33.0,17.73,North,0,0.0,0.0,31,0.00,,---,0.00,VWS V13.01,2013-08-17 01:31:00,
2013-08-16 19:36:00,64.0,33.6,17.73,North,0,0.0,0.0,32,0.00,,---,0.00,VWS V13.01,2013-08-17 01:36:00,
2013-08-16 19:41:00,63.9,33.5,17.73,North,0,0.0,0.0,32,0.00,,---,0.00,VWS V13.01,2013-08-17 01:41:00,
2013-08-16 19:46:00,63.9,33.5,17.73,North,0,0.0,0.0,32,0.00,,---,0.00,VWS V13.01,2013-08-17 01:46:00,
2013-08-16 19:51:00,63.9,33.5,17.73,North,0,0.0,0.0,32,0.00,,---,0.00,VWS V13.01,2013-08-17 01:51:00,
2013-08-16 19:56:00,63.9,34.2,17.73,North,0,0.0,0.0,33,0.00,,---,0.00,VWS V13.01,2013-08-17 01:56:00,
2013-08-16 20:01:00,64.0,34.4,17.73,North,0,0.0,0.0,33,0.00,,---,0.00,VWS V13.01,2013-08-17 02:01:00,
2013-08-16 20:06:00,64.0,34.4,17.73,North,0,0.0,0.0,33,0.00,,---,0.00,VWS V13.01,2013-08-17 02:06:00,
2013-08-16 20:12:00,64.2,34.5,17.73,North,0,0.0,0.0,33,0.00,,---,0.00,VWS V13.01,2013-08-17 02:12:00,
2013-08-16 20:17:00,64.0,34.4,17.73,North,0,0.0,0.0,33,0.00,,---,0.00,VWS V13.01,2013-08-17 02:17:00,
2013-08-16 20:22:00,64.0,34.4,17.73,North,0,0.0,0.0,33,0.00,,---,0.00,VWS V13.01,2013-08-17 02:22:00,
2013-08-16 20:27:00,64.2,34.5,17.73,North,0,0.0,0.0,33,0.00,,---,0.00,VWS V13.01,2013-08-17 02:27:00,
2013-08-16 20:32:00,64.2,34.5,17.73,North,0,0.0,0.0,33,0.00,,---,0.00,VWS V13.01,2013-08-17 02:32:00,
2013-08-16 20:37:00,64.2,34.5,17.73,North,0,0.0,0.0,33,0.00,,---,0.00,VWS V13.01,2013-08-17 02:37:00,
2013-08-16 20:42:00,64.2,34.5,17.73,North,0,0.0,0.0,33,0.00,,---,0.00,VWS V13.01,2013-08-17 02:42:00,
2013-08-16 20:47:00,64.4,34.7,17.73,North,0,0.0,0.0,33,0.00,,---,0.00,VWS V13.01,2013-08-17 02:47:00,
2013-08-16 20:52:00,64.4,34.7,17.73,North,0,0.0,0.0,33,0.00,,---,0.00,VWS V13.01,2013-08-17 02:52:00,
2013-08-16 20:57:00,64.4,34.7,17.73,North,0,0.0,0.0,33,0.00,,---,0.00,VWS V13.01,2013-08-17 02:57:00,
2013-08-16 21:02:00,64.4,34.7,17.73,North,0,0.0,0.0,33,0.00,,---,0.00,VWS V13.01,2013-08-17 03:02:00,
2013-08-16 21:07:00,64.4,34.7,17.73,North,0,0.0,0.0,33,0.00,,---,0.00,VWS V13.01,2013-08-17 03:07:00,
2013-08-16 21:13:00,64.2,35.3,17.73,North,0,0.0,0.0,34,0.00,,---,0.00,VWS V13.01,2013-08-17 03:13:00,
2013-08-16 21:18:00,64.2,35.3,17.73,North,0,0.0,0.0,34,0.00,,---,0.00,VWS V13.01,2013-08-17 03:18:00,
2013-08-16 21:23:00,64.0,35.1,17.73,North,0,0.0,0.0,34,0.00,,---,0.00,VWS V13.01,2013-08-17 03:23:00,
2013-08-16 21:28:00,64.0,35.1,17.73,North,0,0.0,0.0,34,0.00,,---,0.00,VWS V13.01,2013-08-17 03:28:00,
2013-08-16 21:33:00,63.9,35.0,17.73,North,0,0.0,0.0,34,0.00,,---,0.00,VWS V13.01,2013-08-17 03:33:00,
2013-08-16 21:38:00,63.9,35.0,17.73,North,0,0.0,0.0,34,0.00,,---,0.00,VWS V13.01,2013-08-17 03:38:00,
2013-08-16 21:43:00,63.9,35.0,17.73,North,0,0.0,0.0,34,0.00,,---,0.00,VWS V13.01,2013-08-17 03:43:00,
2013-08-16 21:48:00,63.9,35.0,17.73,North,0,0.0,0.0,34,0.00,,---,0.00,VWS V13.01,2013-08-17 03:48:00,
2013-08-16 21:53:00,63.7,34.8,17.73,North,0,0.0,0.0,34,0.00,,---,0.00,VWS V13.01,2013-08-17 03:53:00,
2013-08-16 21:58:00,63.5,34.7,17.73,North,0,0.0,0.0,34,0.00,,---,0.00,VWS V13.01,2013-08-17 03:58:00,
2013-08-16 22:01:00,63.3,34.5,17.73,North,0,0.0,0.0,34,0.00,,---,0.00,VWS V13.01,2013-08-17 04:01:00,
2013-08-16 22:02:00,63.1,34.3,17.73,North,0,0.0,0.0,34,0.00,,---,0.00,VWS V13.01,2013-08-17 04:02:00,
2013-08-16 22:07:00,62.8,34.0,17.73,North,0,0.0,0.0,34,0.00,,---,0.00,VWS V13.01,2013-08-17 04:07:00,
2013-08-16 22:13:00,62.6,33.9,17.73,North,0,0.0,0.0,34,0.00,,---,0.00,VWS V13.01,2013-08-17 04:13:00,
2013-08-16 22:18:00,62.2,33.5,17.73,North,0,0.0,0.0,34,0.00,,---,0.00,VWS V13.01,2013-08-17 04:18:00,
2013-08-16 22:23:00,62.1,33.4,17.73,North,0,0.0,0.0,34,0.00,,---,0.00,VWS V13.01,2013-08-17 04:23:00,
2013-08-16 22:28:00,61.9,33.2,17.73,North,0,0.0,0.0,34,0.00,,---,0.00,VWS V13.01,2013-08-17 04:28:00,
2013-08-16 22:33:00,61.7,33.1,17.73,North,0,0.0,0.0,34,0.00,,---,0.00,VWS V13.01,2013-08-17 04:33:00,
2013-08-16 22:38:00,61.7,33.1,17.73,North,0,0.0,0.0,34,0.00,,---,0.00,VWS V13.01,2013-08-17 04:38:00,
2013-08-16 22:43:00,61.7,33.1,17.73,North,0,0.0,0.0,34,0.00,,---,0.00,VWS V13.01,2013-08-17 04:43:00,
2013-08-16 22:48:00,61.5,32.9,17.73,North,0,0.0,0.0,34,0.00,,---,0.00,VWS V13.01,2013-08-17 04:48:00,
2013-08-16 22:53:00,61.3,32.8,17.73,North,0,0.0,0.0,34,0.00,,---,0.00,VWS V13.01,2013-08-17 04:53:00,
2013-08-16 22:58:00,61.2,32.6,17.73,North,0,0.0,0.0,34,0.00,,---,0.00,VWS V13.01,2013-08-17 04:58:00,
2013-08-16 23:03:00,61.2,32.6,17.73,North,0,0.0,0.0,34,0.00,,---,0.00,VWS V13.01,2013-08-17 05:03:00,
2013-08-16 23:08:00,61.2,32.6,17.73,North,0,0.0,0.0,34,0.00,,---,0.00,VWS V13.01,2013-08-17 05:08:00,
2013-08-16 23:13:00,61.0,32.4,17.73,North,0,0.0,0.0,34,0.00,,---,0.00,VWS V13.01,2013-08-17 05:13:00,
2013-08-16 23:18:00,61.0,32.4,17.73,North,0,0.0,0.0,34,0.00,,---,0.00,VWS V13.01,2013-08-17 05:18:00,
2013-08-16 23:24:00,61.0,32.4,17.73,North,0,0.0,0.0,34,0.00,,---,0.00,VWS V13.01,2013-08-17 05:24:00,
2013-08-16 23:29:00,61.0,32.4,17.73,North,0,0.0,0.0,34,0.00,,---,0.00,VWS V13.01,2013-08-17 05:29:00,
2013-08-16 23:34:00,60.8,32.3,17.73,North,0,0.0,0.0,34,0.00,,---,0.00,VWS V13.01,2013-08-17 05:34:00,
2013-08-16 23:39:00,60.8,32.3,17.73,North,0,0.0,0.0,34,0.00,,---,0.00,VWS V13.01,2013-08-17 05:39:00,
2013-08-16 23:44:00,60.8,32.3,17.73,North,0,0.0,0.0,34,0.00,,---,0.00,VWS V13.01,2013-08-17 05:44:00,
2013-08-16 23:49:00,60.6,32.8,17.73,North,0,0.0,0.0,35,0.00,,---,0.00,VWS V13.01,2013-08-17 05:49:00,
2013-08-16 23:54:00,60.6,32.8,17.73,North,0,0.0,0.0,35,0.00,,---,0.00,VWS V13.01,2013-08-17 05:54:00,
2013-08-16 23:59:00,60.6,32.8,17.73,North,0,0.0,0.0,35,0.00,,---,0.00,VWS V13.01,2013-08-17 05:59:00,